Location: Alafon
(8.4500°N, 4.2333°E)
Time: 14:33:22
(UTC+00:00)

Vanguard 1 Rocket - Pass Details

Date: 24 July 2021
Orbit: 650 x 4226 km, 34.3° (Epoch: 27 September)

Event Time Altitude Azimuth Distance (km) Brightness Sun altitude
Exits shadow 03:47:31 - 200° (SSW) 7,187 11.6 -25.0°
Reaches altitude 10° 03:53:11 10° 187° (S) 7,004 11.6 -23.8°
Maximum altitude 04:05:03 15° 158° (SSE) 6,963 11.8 -21.1°
Drops below altitude 10° 04:17:16 10° 129° (SE) 7,335 12.3 -18.4°
Sets 04:27:36 0° 108° (ESE) 7,943 13.0 -16.0°
